Regional Weather Roundup
Issued by NWS

Home | Current Version | Previous Version | Graphics & Text | Print | Product List | Glossary On
Versions: 1 2 3 4 5 6 7 8 9 10 11 12 13 14 15 16 17 18 19 20 21 22 23 24 25 26 27 28 29 30 31 32 33 34 35 36 37 38 39 40 41 42 43 44 45 46 47 48 49 50
000
ASUS45 KBOU 301007
RWRCO

WEATHER ROUNDUP FOR COLORADO
NATIONAL WEATHER SERVICE DENVER/BOULDER CO
400 AM MDT TUE SEP 30 2014

NOTE: "FAIR" INDICATES FEW OR NO CLOUDS BELOW 12000 FEET WITH NO
SIGNIFICANT WEATHER AND/OR OBSTRUCTIONS TO VISIBILITY.

COZ001>005-013-030-031-301100-
...NORTHWEST COLORADO...

CITY           SKY/WX    TMP DP  RH WIND       PRES   REMARKS
CRAIG          CLOUDY    46  38  73 SW8       30.01F
HAYDEN         CLOUDY    43  36  75 SW7       30.01F
MEEKER         CLOUDY    45  41  86 NE3       30.03
MOUNT WERNER   NOT AVBL
STEAMBOAT SPGS CLOUDY    41  39  91 CALM      30.02S
WALDEN         CLOUDY    37  32  81 SW16G23   29.98S
$$

COZ006>008-011-301100-
...WEST CENTRAL VALLEYS...

CITY           SKY/WX    TMP DP  RH WIND       PRES   REMARKS
GRAND JUNCTION CLEAR     44  42  93 SE7       30.02F
MONTROSE       CLOUDY    40  38  93 CALM      30.09F
EAGLE          CLOUDY    43  43 100 NE3       30.07F
RIFLE          CLOUDY    44  41  89 SE3       30.04F
DELTA          FLURRIES  43  41  92 N6        30.07F
NUCLA          CLOUDY    45  39  81 E5        30.11F
$$

COZ017>023-064>068-301100-
...SOUTHWEST COLORADO...

CITY           SKY/WX    TMP DP  RH WIND       PRES   REMARKS
DURANGO        PTCLDY    39  36  89 NE5       30.10F
CORTEZ         PTCLDY    42  39  89 CALM      30.07F
PAGOSA SPRINGS PTCLDY    35  35 100 CALM      30.13F
TELLURIDE      CLOUDY   N/A N/A N/A E3        30.16F
WOLF CREEK PAS FOG       25  25 100 SW10      30.22F VSB 1/2 WCI  15
$$

COZ009-010-012-014-032>034-037-058>063-301100-
...CENTRAL COLORADO...

CITY           SKY/WX    TMP DP  RH WIND       PRES   REMARKS
ASPEN          MOCLDY    36  33  89 S3        30.08S
BUENA VISTA    PTCLDY    44  27  52 SW20G26   30.01F
COPPER MTN     SNOW      32  28  86 W21G28    30.13F VSB<1/4 WCI  20
BERTHOUD PASS  CLOUDY    23  21  93 NW43G53   30.05S WCI   3
COTTONWOOD PAS PTCLDY    41  27  56 W25G40    30.05S
GUNNISON       CLEAR     36  30  80 N3        30.12F
KREMMLING      CLOUDY    41  34  75 W7        30.04S
LEADVILLE      CLOUDY    35  26  69 NE9       30.08F WCI  28
SALIDA         PTCLDY    47  31  53 SW17      30.09S
SUNLIGHT       CLOUDY    34  32  93 CALM      30.15F FOG
WILKERSON PASS NOT AVBL
$$

COZ069>075-301100-
...SAN LUIS VALLEY/SANGRE DE CRISTO MOUNTAINS...

CITY           SKY/WX    TMP DP  RH WIND       PRES   REMARKS
ALAMOSA        CLEAR     36  32  85 CALM      30.09F
LA VETA PASS   CLEAR     32  27  80 S16G33    30.07F WCI  21
SAGUACHE       CLEAR     39  32  75 NW7       30.10S
$$

COZ035-036-038>040-301100-
...NORTHERN COLORADO FRONT RANGE...

CITY           SKY/WX    TMP DP  RH WIND       PRES   REMARKS
DENVER INTL AP PTCLDY    45  40  82 S13       29.84R
DMNS CITY PARK   N/A     44  42  92 S7        29.84S
AURORA         PTCLDY    44  40  87 S10       29.86R
FRONT RANGE AP PTCLDY    45  43  93 S8        29.85S
ERIE MUNI ARPT CLEAR     47  44  87 SE8       29.80S
BOULDER MUN AP CLEAR     45  43  93 CALM      29.80S
CENTENNIAL     PTCLDY    45  37  73 S10       29.86R
BROOMFIELD     CLEAR     54  34  47 W14G22    29.83R
FORT COLLINS   PTCLDY    46  43  87 SE5       29.82R
LONGMONT       PTCLDY    45  43  93 CALM      29.81S
$$

COZ041-046-047-076>085-087-088-301100-
...PIKES PEAK/PALMER DIVIDE AND SOUTHERN FOOTHILLS...

CITY           SKY/WX    TMP DP  RH WIND       PRES   REMARKS
COLO. SPRINGS  PTCLDY    46  36  68 NE8       29.92S
A. F. ACADEMY  CLEAR     43  34  70 VRB5      29.91F
ELLICOTT       NOT AVBL
FALCON         PTCLDY    40  33  77 N5        29.94S
FORT CARSON    CLEAR     42  37  82 N5        29.89F
LIMON          PTCLDY    41  40  96 CALM      29.89R
MONUMENT HILL  PTCLDY    36  32  87 S7        29.91S
TRINIDAD       CLEAR     47  32  56 NW6       29.92F
$$

COZ042>045-048>051-090-091-301100-
...NORTHEAST COLORADO...

CITY           SKY/WX    TMP DP  RH WIND       PRES   REMARKS
GREELEY ARPT   CLEAR     45  37  76 S6        29.82S
AKRON          MOCLDY    47  45  93 SW12      29.83S
BURLINGTON     MOCLDY    48  44  86 CALM      29.86S
WRAY           PTCLDY    49  47  93 SW7       29.82F
STERLING       MOCLDY    52  50  93 SW8       29.79S
HOLYOKE        CLEAR     52  46  82 S7        29.80S
FORT MORGAN    MOCLDY    46  44  93 S6        29.83R
$$

COZ086-089-092>099-301100-
...SOUTHEAST COLORADO...

CITY           SKY/WX    TMP DP  RH WIND       PRES   REMARKS
PUEBLO         CLEAR     46  41  82 E5        29.88F
LA JUNTA       CLEAR     49  44  83 MISG      29.88F
LAMAR          CLEAR     49  46  90 SE5       29.86F
SPRINGFIELD      N/A     48  48 100 SW6       29.88F
$$



USA.gov is the U.S. government's official web portal to all federal, state and local government web resources and services.